Le nostre stazioni meteo in Italia

Pubblicità
Il mio iltempo24.it
Tyndrum, Gran Bretagna (99020): Temperatura & dewpoint: 16.10.2018 07:00:00 - 22.10.2018 07:00:00 (BST)Tyndrum, Gran Bretagna (99020): precipitazioni: 16.10.2018 07:00:00 - 22.10.2018 07:00:00 (BST)
Data & Tempo tt [°C] td [°C] rr [mm]
22.10.2018 07:00:00 6,7 4,3 0,2
22.10.2018 06:00:00 7,1 4,1 0,0
22.10.2018 05:00:00 6,5 4,1 0,2
22.10.2018 04:00:00 7,1 3,8 0,0
22.10.2018 03:00:00 6,8 2,3 0,0
22.10.2018 02:00:00 6,8 1,9 0,0
22.10.2018 01:00:00 6,2 2,5 0,2
22.10.2018 00:00:00 6,6 3,5 0,2
21.10.2018 23:00:00 6,6 3,2 0,0
21.10.2018 22:00:00 7,3 2,2 0,0
21.10.2018 21:00:00 7,6 2,2 0,0
21.10.2018 20:00:00 7,5 3,0 0,0
21.10.2018 19:00:00 7,7 2,6 0,0
21.10.2018 18:00:00 8,3 2,5 0,0
21.10.2018 17:00:00 8,9 3,2 0,0
21.10.2018 16:00:00 9,4 4,3 0,0
21.10.2018 15:00:00 11,0 5,2 0,0
21.10.2018 14:00:00 10,2 6,2 0,2
21.10.2018 13:00:00 10,0 8,2 0,0
21.10.2018 12:00:00 9,3 7,1 0,0
21.10.2018 11:00:00 9,4 8,0 0,2
21.10.2018 10:00:00 10,0 9,1 0,4
21.10.2018 09:00:00 10,5 9,5 0,6
21.10.2018 08:00:00 11,7 10,4 0,2
21.10.2018 07:00:00 14,3 13,0 1,2
21.10.2018 06:00:00 14,6 13,2 1,2
21.10.2018 05:00:00 14,6 13,2 1,6
21.10.2018 04:00:00 14,7 13,2 1,0
21.10.2018 03:00:00 14,6 13,2 0,2
21.10.2018 02:00:00 14,7 13,3 0,2
21.10.2018 01:00:00 14,8 13,2 0,6
21.10.2018 00:00:00 14,5 13,4 0,2
20.10.2018 23:00:00 13,6 12,8 0,2
20.10.2018 22:00:00 14,1 12,7 0,4
20.10.2018 21:00:00 13,4 12,5 0,4
20.10.2018 20:00:00 14,6 13,0 0,2
20.10.2018 19:00:00 14,4 12,7 0,2
20.10.2018 18:00:00 14,1 12,4 0,0
20.10.2018 17:00:00 13,4 12,0 0,0
20.10.2018 16:00:00 14,0 11,9 0,2
20.10.2018 15:00:00 13,8 12,7 0,2
20.10.2018 14:00:00 13,5 11,9 0,0
20.10.2018 13:00:00 13,5 11,7 0,0
20.10.2018 12:00:00 13,2 11,2 0,0
20.10.2018 11:00:00 13,6 10,7 0,0
20.10.2018 10:00:00 13,4 11,0 0,0
20.10.2018 09:00:00 11,6 10,6 0,0
20.10.2018 08:00:00 11,1 10,6 0,0
20.10.2018 07:00:00 10,2 10,0 0,2
20.10.2018 06:00:00 9,8 9,5 0,0
20.10.2018 05:00:00 8,4 8,2 0,2
20.10.2018 04:00:00 6,6 6,3 0,2
20.10.2018 03:00:00 5,7 5,4 0,0
20.10.2018 02:00:00 4,1 3,8 0,0
20.10.2018 01:00:00 3,0 2,7 0,0
20.10.2018 00:00:00 1,5 0,8 0,0
19.10.2018 23:00:00 2,4 1,7 0,0
19.10.2018 22:00:00 3,1 1,8 0,0
19.10.2018 21:00:00 6,1 5,3 0,0
19.10.2018 20:00:00 6,7 5,5 0,0
19.10.2018 19:00:00 7,8 5,2 0,0
19.10.2018 18:00:00 10,0 6,7 0,0
19.10.2018 17:00:00 10,5 6,1 0,0
19.10.2018 16:00:00 11,1 6,2 0,0
19.10.2018 15:00:00 10,6 7,4 0,0
19.10.2018 14:00:00 10,8 8,9 0,0
19.10.2018 13:00:00 10,7 8,8 0,0
19.10.2018 12:00:00 10,1 8,2 0,0
19.10.2018 11:00:00 8,9 7,9 0,6
19.10.2018 10:00:00 8,2 7,0 1,0
19.10.2018 09:00:00 8,5 6,0 0,0
19.10.2018 08:00:00 8,7 5,8 0,0
19.10.2018 07:00:00 8,9 5,4 0,0
19.10.2018 06:00:00 8,6 5,4 0,0
19.10.2018 05:00:00 8,5 5,6 0,0
19.10.2018 04:00:00 8,3 5,3 0,0
19.10.2018 03:00:00 7,9 5,6 0,0
19.10.2018 02:00:00 6,0 5,1 0,0
19.10.2018 01:00:00 6,2 5,3 0,0
19.10.2018 00:00:00 5,2 4,2 0,0
18.10.2018 23:00:00 5,6 4,4 0,0
18.10.2018 22:00:00 7,2 4,0 0,0
18.10.2018 21:00:00 6,9 4,7 0,0
18.10.2018 20:00:00 7,4 5,5 0,0
18.10.2018 19:00:00 8,0 5,7 0,0
18.10.2018 18:00:00 8,7 5,7 0,0
18.10.2018 17:00:00 9,2 6,0 0,0
18.10.2018 16:00:00 9,4 6,3 0,0
18.10.2018 15:00:00 9,8 5,2 0,0
18.10.2018 14:00:00 9,7 6,4 0,0
18.10.2018 13:00:00 9,1 6,2 0,0
18.10.2018 12:00:00 8,4 8,1 0,0
18.10.2018 11:00:00 6,1 5,9 0,0
18.10.2018 10:00:00 3,5 3,2 0,0
18.10.2018 09:00:00 0,9 0,5 0,0
18.10.2018 08:00:00 2,2 1,9 0,0
18.10.2018 07:00:00 1,1 0,7 0,0
18.10.2018 06:00:00 1,1 0,8 0,0
18.10.2018 05:00:00 0,5 0,1 0,0
18.10.2018 04:00:00 0,6 0,2 0,0
18.10.2018 03:00:00 0,2 -0,4 0,0
18.10.2018 02:00:00 1,5 1,0 0,0
18.10.2018 01:00:00 2,8 2,4 0,0
18.10.2018 00:00:00 2,9 2,4 0,0
17.10.2018 23:00:00 2,5 1,7 0,2
17.10.2018 22:00:00 4,2 3,7 0,0
17.10.2018 21:00:00 3,5 2,6 0,0
17.10.2018 20:00:00 4,9 4,1 0,0
17.10.2018 19:00:00 5,1 3,2 0,0
17.10.2018 18:00:00 7,3 4,9 0,0
17.10.2018 17:00:00 8,6 6,0 0,0
17.10.2018 16:00:00 10,7 5,4 0,0
17.10.2018 15:00:00 11,8 5,9 0,0
17.10.2018 14:00:00 11,7 5,4 0,0
17.10.2018 13:00:00 11,4 6,5 0,0
17.10.2018 12:00:00 8,8 7,5 0,4
17.10.2018 11:00:00 8,7 7,5 0,4
17.10.2018 10:00:00 8,2 7,1 0,0
17.10.2018 09:00:00 8,5 7,8 0,2
17.10.2018 08:00:00 9,1 7,9 0,2
17.10.2018 07:00:00 9,0 7,5 0,0
17.10.2018 06:00:00 8,2 7,3 0,0
17.10.2018 05:00:00 8,1 7,2 0,0
17.10.2018 04:00:00 8,7 7,7 0,0
17.10.2018 03:00:00 7,5 6,2 0,0
17.10.2018 02:00:00 9,1 7,7 0,0
17.10.2018 01:00:00 10,0 8,0 1,0
17.10.2018 00:00:00 11,1 8,9 0,2
16.10.2018 23:00:00 11,7 9,0 0,2
16.10.2018 22:00:00 11,2 9,0 0,0
16.10.2018 21:00:00 11,3 7,9 0,0
16.10.2018 20:00:00 11,5 9,1 0,0
16.10.2018 19:00:00 11,0 9,2 0,0
16.10.2018 18:00:00 11,6 8,9 0,0
16.10.2018 17:00:00 11,6 9,0 0,0
16.10.2018 16:00:00 11,3 9,7 0,4
16.10.2018 15:00:00 10,6 9,8 0,8
16.10.2018 14:00:00 10,6 9,5 1,6
16.10.2018 13:00:00 10,2 9,1 1,6
16.10.2018 12:00:00 10,8 8,2 0,2
16.10.2018 11:00:00 10,9 7,5 0,0
16.10.2018 10:00:00 10,0 7,6 0,0
16.10.2018 09:00:00 7,8 6,2 0,0
16.10.2018 08:00:00 7,7 5,8 0,0
16.10.2018 07:00:00 7,6 5,5 0,0

tt = Temperatura
td = dewpoint
rr = precipitazioni

Stazioni seguenti

WeatherPro
AMSI
MeteoEarth